H1 CPF 2 NER 2023 1 16 9 016 01 glonass135 H2 1600801 9135 41330 2023 1 16 0 0 0 2023 1 19 23 45 0 900 1 1 0 0 0 1 H9 10 0 59960 0.00000 0 -15590448.420 -13875877.519 -14676829.423 10 0 59960 900.00000 0 -16594630.995 -15196911.493 -12034946.939 10 0 59960 1800.00000 0 -17498104.729 -16162705.399 -9159549.436 10 0 59960 2700.00000 0 -18240782.006 -16775928.405 -6106479.007 10 0 59960 3600.00000 0 -18766213.604 -17052242.311 -2934988.705 10 0 59960 4500.00000 0 -19024086.615 -17019415.101 293405.716 10 0 59960 5400.00000 0 -18972479.890 -16715940.250 3516115.577 10 0 59960 6300.00000 0 -18579782.402 -16189221.084 6670687.706 10 0 59960 7200.00000 0 -17826194.123 -15493397.445 9696008.241 10 0 59960 8100.00000 0 -16704746.459 -14686906.577 12533478.949 10 0 59960 9000.00000 0 -15221799.261 -13829880.960 15128143.845 10 0 59960 9900.00000 0 -13396993.245 -12981492.285 17429744.913 10 0 59960 10800.00000 0 -11262659.027 -12197352.795 19393687.358 10 0 59960 11700.00000 0 -8862706.431 -11527082.529 20981896.557 10 0 59960 12600.00000 0 -6251039.024 -11012144.043 22163550.879 10 0 59960 13500.00000 0 -3489558.272 -10684034.968 22915676.960 10 0 59960 14400.00000 0 -645838.483 -10562913.940 23223596.339 10 0 59960 15300.00000 0 2209432.701 -10656717.610 23081214.995 10 0 59960 16200.00000 0 5005143.819 -10960806.140 22491149.994 10 0 59960 17100.00000 0 7672469.165 -11458152.863 21464690.234 10 0 59960 18000.00000 0 10147487.219 -12120071.213 20021591.134 10 0 59960 18900.00000 0 12373600.166 -12907449.682 18189706.079 10 0 59960 19800.00000 0 14303654.543 -13772444.253 16004460.351 10 0 59960 20700.00000 0 15901674.805 -14660558.315 13508176.435 10 0 59960 21600.00000 0 17144137.481 -15513023.418 10749262.473 10 0 59960 22500.00000 0 18020732.356 -16269381.036 7781278.582 10 0 59960 23400.00000 0 18534578.377 -16870156.392 4661898.600 10 0 59960 24300.00000 0 18701884.966 -17259510.913 1451787.172 10 0 59960 25200.00000 0 18551072.853 -17387760.185 -1786585.729 10 0 59960 26100.00000 0 18121391.597 -17213649.525 -4990169.059 10 0 59960 27000.00000 0 17461092.638 -16706289.269 -8096568.874 10 0 59960 27900.00000 0 16625235.822 -15846666.134 -11045275.130 10 0 59960 28800.00000 0 15673223.150 -14628665.102 -13778851.758 10 0 59960 29700.00000 0 14666165.273 -13059557.125 -16244065.636 10 0 59960 30600.00000 0 13664193.275 -11159930.826 -18392931.413 10 0 59960 31500.00000 0 12723830.541 -8963070.216 -20183650.992 10 0 59960 32400.00000 0 11895536.595 -6513803.971 -21581429.025 10 0 59960 33300.00000 0 11221527.159 -3866874.247 -22559148.513 10 0 59960 34200.00000 0 10733962.542 -1084893.308 -23097893.613 10 0 59960 35100.00000 0 10453580.481 1764026.639 -23187310.116 10 0 59960 36000.00000 0 10388830.383 4608871.513 -22825797.324 10 0 59960 36900.00000 0 10535544.529 7378443.081 -22020528.430 10 0 59960 37800.00000 0 10877158.947 10004083.528 -20787299.916 10 0 59960 38700.00000 0 11385473.474 12422294.095 -19150213.621 10 0 59960 39600.00000 0 12021917.860 14577139.611 -17141198.383 10 0 59960 40500.00000 0 12739269.565 16422340.058 -14799381.106 10 0 59960 41400.00000 0 13483750.051 17922963.525 -12170319.814 10 0 59960 42300.00000 0 14197410.660 19056651.582 -9305113.995 10 0 59960 43200.00000 0 14820707.143 19814327.806 -6259409.662 10 0 59960 44100.00000 0 15295154.182 20200361.701 -3092318.528 10 0 59960 45000.00000 0 15565948.038 20232182.970 134727.581 10 0 59960 45900.00000 0 15584446.965 19939363.962 3359164.967 10 0 59960 46800.00000 0 15310405.097 19362210.188 6518506.042 10 0 59960 47700.00000 0 14713865.967 18549919.088 9551543.865 10 0 59960 48600.00000 0 13776636.079 17558385.073 12399530.295 10 0 59960 49500.00000 0 12493276.503 16447743.263 15007305.547 10 0 59960 50400.00000 0 10871570.531 15279754.967 17324357.891 10 0 59960 51300.00000 0 8932447.127 14115144.244 19305793.789 10 0 59960 52200.00000 0 6709362.261 13010996.627 20913200.603 10 0 59960 53100.00000 0 4247162.685 12018328.353 22115385.886 10 0 59960 54000.00000 0 1600477.770 11179927.236 22888979.705 10 0 59960 54900.00000 0 -1168295.561 10528554.977 23218888.827 10 0 59960 55800.00000 0 -3991332.956 10085585.908 23098594.121 10 0 59960 56700.00000 0 -6797952.625 9860139.038 22530285.268 10 0 59960 57600.00000 0 -9517310.343 9848740.088 21524829.641 10 0 59960 58500.00000 0 -12081109.022 10035528.251 20101575.064 10 0 59960 59400.00000 0 -14426211.517 10392999.846 18287989.095 10 0 59960 60300.00000 0 -16497048.784 10883258.618 16119140.475 10 0 59960 61200.00000 0 -18247723.381 11459721.091 13637031.431 10 0 59960 62100.00000 0 -19643720.551 12069205.962 10889792.519 10 0 59960 63000.00000 0 -20663155.068 12654320.012 7930754.541 10 0 59960 63900.00000 0 -21297501.052 13156039.876 4817414.981 10 0 59960 64800.00000 0 -21551773.669 13516380.228 1610318.771 10 0 59960 65700.00000 0 -21444154.616 13681034.661 -1628124.651 10 0 59960 66600.00000 0 -21005076.991 13601876.225 -4834864.239 10 0 59960 67500.00000 0 -20275808.252 13239210.180 -7947445.405 10 0 59960 68400.00000 0 -19306591.546 12563681.809 -10905237.937 10 0 59960 69300.00000 0 -18154424.653 11557756.807 -13650628.433 10 0 59960 70200.00000 0 -16880571.407 10216709.961 -16130152.792 10 0 59960 71100.00000 0 -15547911.767 8549078.884 -18295545.669 10 0 59960 72000.00000 0 -14218243.527 6576562.558 -20104685.571 10 0 59960 72900.00000 0 -12949650.406 4333368.054 -21522416.844 10 0 59960 73800.00000 0 -11794048.053 1865032.311 -22521232.485 10 0 59960 74700.00000 0 -10795011.586 -773231.872 -23081804.723 10 0 59960 75600.00000 0 -9985975.879 -3518596.612 -23193353.664 10 0 59960 76500.00000 0 -9388883.629 -6303000.455 -22853847.552 10 0 59960 77400.00000 0 -9013337.051 -9055751.308 -22070031.587 10 0 59960 78300.00000 0 -8856287.537 -11706242.562 -20857285.641 10 0 59960 79200.00000 0 -8902274.818 -14186669.691 -19239314.376 10 0 59960 80100.00000 0 -9124204.044 -16434634.786 -17247676.536 10 0 59960 81000.00000 0 -9484626.607 -18395531.506 -14921163.094 10 0 59960 81900.00000 0 -9937469.466 -20024612.240 -12305036.734 10 0 59960 82800.00000 0 -10430139.082 -21288652.603 -9450147.803 10 0 59960 83700.00000 0 -10905910.479 -22167145.380 -6411944.092 10 0 59960 84600.00000 0 -11306500.182 -22652975.682 -3249393.743 10 0 59960 85500.00000 0 -11574714.264 -22752550.656 -23842.318 10 0 59961 0.00000 0 -11657059.770 -22485379.955 3202173.585 10 0 59961 900.00000 0 -11506209.461 -21883125.668 6366135.069 10 0 59961 1800.00000 0 -11083216.097 -20988163.069 9406744.411 10 0 59961 2700.00000 0 -10359383.244 -19851712.809 12265106.223 10 0 59961 3600.00000 0 -9317713.680 -18531623.522 14885859.586 10 0 59961 4500.00000 0 -7953874.385 -17089897.760 17218241.639 10 0 59961 5400.00000 0 -6276637.039 -15590064.582 19217062.544 10 0 59961 6300.00000 0 -4307774.601 -14094508.217 20843573.851 10 0 59961 7200.00000 0 -2081417.084 -12661863.821 22066214.184 10 0 59961 8100.00000 0 357108.274 -11344588.406 22861218.587 10 0 59961 9000.00000 0 2952906.031 -10186807.610 23213080.205 10 0 59961 9900.00000 0 5643544.935 -9222527.711 23114855.545 10 0 59961 10800.00000 0 8361411.355 -8474287.127 22568307.272 10 0 59961 11700.00000 0 11036287.926 -7952303.653 21583881.241 10 0 59961 12600.00000 0 13598051.964 -7654153.281 20180517.318 10 0 59961 13500.00000 0 15979382.864 -7564994.462 18385296.542 10 0 59961 14400.00000 0 18118366.845 -7658328.992 16232930.063 10 0 59961 15300.00000 0 19960890.912 -7897268.276 13765098.451 10 0 59961 16200.00000 0 21462726.246 -8236252.302 11029652.884 10 0 59961 17100.00000 0 22591213.588 -8623149.311 8079692.664 10 0 59961 18000.00000 0 23326479.416 -9001647.687 4972536.355 10 0 59961 18900.00000 0 23662131.172 -9313838.714 1768606.249 10 0 59961 19800.00000 0 23605401.653 -9502880.175 -1469751.949 10 0 59961 20700.00000 0 23176735.922 -9515626.952 -4679490.558 10 0 59961 21600.00000 0 22408837.947 -9305115.686 -7798097.751 10 0 59961 22500.00000 0 21345217.225 -8832796.543 -10764826.471 10 0 59961 23400.00000 0 20038297.174 -8070415.814 -13521889.116 10 0 59961 24300.00000 0 18547165.836 -7001467.901 -16015593.476 10 0 59961 25200.00000 0 16935064.675 -5622153.687 -18197396.755 10 0 59961 26100.00000 0 15266722.377 -3941803.539 -20024856.256 10 0 59961 27000.00000 0 13605646.849 -1982746.015 -21462457.840 10 0 59961 27900.00000 0 12011490.063 220372.972 -22482305.931 10 0 59961 28800.00000 0 10537596.936 2621792.391 -23064661.877 10 0 59961 29700.00000 0 9228841.094 5166309.631 -23198320.741 10 0 59961 30600.00000 0 8119837.827 7791355.517 -22880819.958 10 0 59961 31500.00000 0 7233608.273 10429384.119 -22118476.604 10 0 59961 32400.00000 0 6580749.457 13010477.819 -20926253.438 10 0 59961 33300.00000 0 6159143.370 15465059.286 -19327457.110 10 0 59961 34200.00000 0 5954215.482 17726597.652 -17353275.097 10 0 59961 35100.00000 0 5939729.987 19734196.807 -15042160.953 10 0 59961 36000.00000 0 6079086.596 21434958.729 -12439080.211 10 0 59961 36900.00000 0 6327062.783 22786024.283 -9594631.963 10 0 59961 37800.00000 0 6631926.842 23756207.548 -6564063.370 10 0 59961 38700.00000 0 6937831.751 24327156.758 -3406196.327 10 0 59961 39600.00000 0 7187388.260 24493994.640 -182287.249 10 0 59961 40500.00000 0 7324308.349 24265412.781 3045157.971 10 0 59961 41400.00000 0 7296007.393 23663217.249 6213591.032 10 0 59961 42300.00000 0 7056055.370 22721345.545 9261627.075 10 0 59961 43200.00000 0 6566373.856 21484396.813 12130226.401 10 0 59961 44100.00000 0 5799086.322 20005737.250 14763829.738 10 0 59961 45000.00000 0 4737943.786 18345260.098 17111425.661 10 0 59961 45900.00000 0 3379265.512 16566893.686 19127530.366 10 0 59961 46800.00000 0 1732354.573 14735961.059 20773061.655 10 0 59961 47700.00000 0 -180630.226 12916500.763 22016091.004 10 0 59961 48600.00000 0 -2325342.168 11168659.675 22832459.884 10 0 59961 49500.00000 0 -4656428.199 9546265.656 23206248.914 10 0 59961 50400.00000 0 -7119176.949 8094680.442 23130090.939 10 0 59961 51300.00000 0 -9651566.756 6849021.599 22605321.857 10 0 59961 52200.00000 0 -12186630.629 5832827.212 21641965.759 10 0 59961 53100.00000 0 -14655041.560 5057218.914 20258553.819 10 0 59961 54000.00000 0 -16987812.271 4520598.254 18481779.300 10 0 59961 54900.00000 0 -19118998.100 4208889.384 16345994.024 10 0 59961 55800.00000 0 -20988290.982 4096318.281 13892554.723 10 0 59961 56700.00000 0 -22543396.414 4146696.189 11169030.669 10 0 59961 57600.00000 0 -23742093.738 4315153.527 8228286.857 10 0 59961 58500.00000 0 -24553892.750 4550251.282 5127459.944 10 0 59961 59400.00000 0 -24961216.288 4796380.429 1926846.505 10 0 59961 60300.00000 0 -24960058.153 4996347.320 -1311274.600 10 0 59961 61200.00000 0 -24560087.806 5094034.556 -4523862.161 10 0 59961 62100.00000 0 -23784196.824 5037023.302 -7648350.170 10 0 59961 63000.00000 0 -22667505.880 4779064.284 -10623877.714 10 0 59961 63900.00000 0 -21255874.194 4282291.051 -13392485.845 10 0 59961 64800.00000 0 -19603974.673 3519080.028 -15900256.905 10 0 59961 65700.00000 0 -17773016.508 2473476.974 -18098373.030 10 0 59961 66600.00000 0 -15828211.989 1142128.171 -19944072.339 10 0 59961 67500.00000 0 -13836094.933 -465324.135 -21401483.783 10 0 59961 68400.00000 0 -11861804.117 -2326399.607 -22442324.296 10 0 59961 69300.00000 0 -9966446.229 -4406484.928 -23046444.898 10 0 59961 70200.00000 0 -8204648.968 -6660056.914 -23202215.663 10 0 59961 71100.00000 0 -6622406.415 -9032372.633 -22906742.796 10 0 59961 72000.00000 0 -5255306.105 -11461555.789 -22165914.399 10 0 59961 72900.00000 0 -4127210.693 -13880992.303 -20994274.914 10 0 59961 73800.00000 0 -3249447.743 -16221935.186 -19414731.458 10 0 59961 74700.00000 0 -2620539.704 -18416210.140 -17458098.481 10 0 59961 75600.00000 0 -2226483.277 -20398909.423 -15162490.182 10 0 59961 76500.00000 0 -2041564.405 -22110962.125 -12572572.884 10 0 59961 77400.00000 0 -2029672.735 -23501474.231 -9738692.291 10 0 59961 78300.00000 0 -2146058.557 -24529741.691 -6715892.768 10 0 59961 79200.00000 0 -2339456.866 -25166853.372 -3562847.790 10 0 59961 80100.00000 0 -2554488.021 -25396817.958 -340722.455 10 0 59961 81000.00000 0 -2734233.093 -25217168.759 2888009.941 10 0 59961 81900.00000 0 -2822874.892 -24639022.144 6060774.476 10 0 59961 82800.00000 0 -2768293.165 -23686588.046 9116101.078 10 0 59961 83700.00000 0 -2524504.575 -22396153.679 11994807.984 10 0 59961 84600.00000 0 -2053844.696 -20814583.356 14641139.797 10 0 59961 85500.00000 0 -1328800.195 -18997397.233 17003838.708 10 0 59962 0.00000 0 -333414.067 -17006509.139 19037128.826 10 0 59962 900.00000 0 935796.153 -14907716.283 20701596.440 10 0 59962 1800.00000 0 2469445.104 -12768047.427 21964947.286 10 0 59962 2700.00000 0 4245430.729 -10653075.476 22802630.575 10 0 59962 3600.00000 0 6229623.813 -8624307.971 23198315.388 10 0 59962 4500.00000 0 8377069.487 -6736762.046 23144211.548 10 0 59962 5400.00000 0 10633652.616 -5036824.048 22641228.502 10 0 59962 6300.00000 0 12938159.799 -3560482.159 21698968.578 10 0 59962 7200.00000 0 15224654.030 -2332005.270 20335553.949 10 0 59962 8100.00000 0 17425064.837 -1363122.922 18577289.511 10 0 59962 9000.00000 0 19471887.278 -652740.565 16458166.871 10 0 59962 9900.00000 0 21300877.946 -187202.251 14019217.748 10 0 59962 10800.00000 0 22853635.711 58910.069 11307727.995 10 0 59962 11700.00000 0 24079959.002 121474.063 8376326.460 10 0 59962 12600.00000 0 24939880.202 45076.134 5281965.694 10 0 59962 13500.00000 0 25405290.807 -119113.738 2084814.018 10 0 59962 14400.00000 0 25461087.948 -315751.099 -1152919.387 10 0 59962 15300.00000 0 25105792.849 -487907.248 -4368202.827 10 0 59962 16200.00000 0 24351614.234 -579729.646 -7498419.271 10 0 59962 17100.00000 0 23223953.242 -539058.312 -10482597.091 10 0 59962 18000.00000 0 21760370.376 -319885.670 -13262609.031 10 0 59962 18900.00000 0 20009057.982 115446.045 -15784314.804 10 0 59962 19800.00000 0 18026882.880 794404.519 -17998624.040 10 0 59962 20700.00000 0 15877082.104 1732863.480 -19862457.929 10 0 59962 21600.00000 0 13626709.249 2934195.714 -21339590.450 10 0 59962 22500.00000 0 11343939.251 4388902.219 -22401352.665 10 0 59962 23400.00000 0 9095345.136 6074793.664 -23027186.546 10 0 59962 24300.00000 0 6943260.937 7957716.966 -23205038.107 10 0 59962 25200.00000 0 4943340.880 9992796.668 -22931582.877 10 0 59962 26100.00000 0 3142416.270 12126139.070 -22212280.154 10 0 59962 27000.00000 0 1576738.487 14296927.784 -21061255.826 10 0 59962 27900.00000 0 270679.962 16439823.037 -19501016.854 10 0 59962 28800.00000 0 -764054.386 18487564.433 -17562003.652 10 0 59962 29700.00000 0 -1528674.429 20373668.564 -15281989.687 10 0 59962 30600.00000 0 -2037002.689 22035109.086 -12705340.344 10 0 59962 31500.00000 0 -2314637.598 23414867.613 -9882145.894 10 0 59962 32400.00000 0 -2397619.349 24464249.441 -6867245.567 10 0 59962 33300.00000 0 -2330656.195 25144867.961 -3719161.830 10 0 59962 34200.00000 0 -2164987.219 25430215.512 -498965.671 10 0 59962 35100.00000 0 -1955972.726 25306755.811 2730905.151 10 0 59962 36000.00000 0 -1760514.433 24774493.010 5907852.102 10 0 59962 36900.00000 0 -1634414.619 23846994.281 8970322.924 10 0 59962 37800.00000 0 -1629785.640 22550865.485 11858996.742 10 0 59962 38700.00000 0 -1792618.933 20924702.147 14517924.876 10 0 59962 39600.00000 0 -2160615.758 19017559.561 16895605.809 10 0 59962 40500.00000 0 -2761370.942 16887005.587 18945974.369 10 0 59962 41400.00000 0 -3610986.166 14596836.712 20629286.837 10 0 59962 42300.00000 0 -4713171.438 12214551.695 21912885.579 10 0 59962 43200.00000 0 -6058873.312 9808686.860 22771829.216 10 0 59962 44100.00000 0 -7626446.684 7446122.659 23189376.598 10 0 59962 45000.00000 0 -9382364.528 5189472.321 23157315.447 10 0 59962 45900.00000 0 -11282437.833 3094660.001 22676129.217 10 0 59962 46800.00000 0 -13273496.844 1208788.123 21754998.443 10 0 59962 47700.00000 0 -15295465.395 -431618.009 20411635.742 10 0 59962 48600.00000 0 -17283743.619 -1801915.732 18671956.554 10 0 59962 49500.00000 0 -19171801.057 -2890146.465 16569590.673 10 0 59962 50400.00000 0 -20893872.813 -3697299.566 14145242.716 10 0 59962 51300.00000 0 -22387646.497 -4237027.502 11445912.631 10 0 59962 52200.00000 0 -23596827.407 -4534824.191 8523990.293 10 0 59962 53100.00000 0 -24473473.772 -4626701.007 5436241.081 10 0 59962 54000.00000 0 -24980003.051 -4557416.463 2242701.837 10 0 59962 54900.00000 0 -25090783.688 -4378334.746 -994491.242 10 0 59962 55800.00000 0 -24793243.942 -4145004.392 -4212319.314 10 0 59962 56700.00000 0 -24088449.822 -3914560.684 -7348117.642 10 0 59962 57600.00000 0 -22991126.622 -3743063.149 -10340807.144 10 0 59962 58500.00000 0 -21529122.386 -3682882.490 -13132095.385 10 0 59962 59400.00000 0 -19742335.446 -3780249.294 -15667622.408 10 0 59962 60300.00000 0 -17681151.086 -4073069.876 -17898027.994 10 0 59962 61200.00000 0 -15404453.348 -4589103.099 -19779918.683 10 0 59962 62100.00000 0 -12977295.880 -5344576.426 -21276715.270 10 0 59962 63000.00000 0 -10468330.041 -6343300.551 -22359364.147 10 0 59962 63900.00000 0 -7947098.470 -7576320.489 -23006898.824 10 0 59962 64800.00000 0 -5481307.559 -9022118.201 -23206841.209 10 0 59962 65700.00000 0 -3134192.712 -10647358.321 -22955435.524 10 0 59962 66600.00000 0 -962085.989 -12408145.592 -22257711.112 10 0 59962 67500.00000 0 987713.285 -14251741.133 -21127373.732 10 0 59962 68400.00000 0 2678677.458 -16118665.444 -19586528.269 10 0 59962 69300.00000 0 4086328.092 -17945099.893 -17665238.930 10 0 59962 70200.00000 0 5199000.838 -19665486.102 -15400936.091 10 0 59962 71100.00000 0 6018067.864 -21215214.501 -12837681.739 10 0 59962 72000.00000 0 6557610.783 -22533289.653 -10025308.178 10 0 59962 72900.00000 0 6843560.037 -23564861.126 -7018446.958 10 0 59962 73800.00000 0 6912338.887 -24263514.394 -3875467.001 10 0 59962 74700.00000 0 6809070.706 -24593226.317 -657342.688 10 0 59962 75600.00000 0 6585426.412 -24529903.932 2573526.190 10 0 59962 76500.00000 0 6297203.649 -24062442.652 5754519.845 10 0 59962 77400.00000 0 6001740.319 -23193260.079 8824006.093 10 0 59962 78300.00000 0 5755271.693 -21938283.450 11722527.111 10 0 59962 79200.00000 0 5610342.487 -20326391.368 14393942.948 10 0 59962 80100.00000 0 5613382.692 -18398333.056 16786510.224 10 0 59962 81000.00000 0 5802549.016 -16205169.853 18853875.955 10 0 59962 81900.00000 0 6205922.599 -13806303.156 20555968.149 10 0 59962 82800.00000 0 6840138.831 -11267170.047 21859766.691 10 0 59962 83700.00000 0 7709507.192 -8656701.238 22739940.367 10 0 59962 84600.00000 0 8805658.859 -6044645.606 23179338.231 10 0 59962 85500.00000 0 10107737.977 -3498871.181 23169326.010 10 0 59963 0.00000 0 11583130.046 -1082753.480 22709961.030 10 0 59963 900.00000 0 13188699.514 1147242.768 21810001.481 10 0 59963 1800.00000 0 14872484.726 3143685.691 20486749.737 10 0 59963 2700.00000 0 16575783.780 4869918.910 18765730.858 10 0 59963 3600.00000 0 18235543.727 6301349.268 16680211.698 10 0 59963 4500.00000 0 19786955.037 7426227.369 14270568.453 10 0 59963 5400.00000 0 21166143.238 8245888.095 11583513.641 10 0 59963 6300.00000 0 22312845.029 8774440.959 8671196.413 10 0 59963 7200.00000 0 23172956.060 9037923.204 5590192.999 10 0 59963 8100.00000 0 23700842.419 9072951.441 2400406.548 10 0 59963 9000.00000 0 23861317.327 8924928.996 -836102.154 10 0 59963 9900.00000 0 23631198.271 8645885.296 -4056329.702 10 0 59963 10800.00000 0 23000377.470 8292039.599 -7197566.326 10 0 59963 11700.00000 0 21972359.096 7921193.389 -10198628.169 10 0 59963 12600.00000 0 20564239.454 7590063.262 -13001060.222 10 0 59963 13500.00000 0 18806130.066 7351668.777 -15550285.301 10 0 59963 14400.00000 0 16740047.449 7252887.361 -17796675.595 10 0 59963 15300.00000 0 14418316.126 7332281.087 -19696525.019 10 0 59963 16200.00000 0 11901552.036 7618288.358 -21212902.963 10 0 59963 17100.00000 0 9256311.153 8127857.720 -22316372.695 10 0 59963 18000.00000 0 6552502.139 8865581.980 -22985560.541 10 0 59963 18900.00000 0 3860671.433 9823369.323 -23207565.294 10 0 59963 19800.00000 0 1249274.101 10980665.281 -22978200.532 10 0 59963 20700.00000 0 -1217955.894 12305215.943 -22302065.925 10 0 59963 21600.00000 0 -3484427.087 13754340.029 -21192446.980 10 0 59963 22500.00000 0 -5502803.757 15276656.019 -19671045.953 10 0 59963 23400.00000 0 -7236724.332 16814191.504 -17767549.880 10 0 59963 24300.00000 0 -8662055.130 18304785.977 -15519044.696 10 0 59963 25200.00000 0 -9767629.199 19684686.144 -12969287.295 10 0 59963 26100.00000 0 -10555441.542 20891224.850 -10167850.037 10 0 59963 27000.00000 0 -11040294.837 21865471.367 -7169154.583 10 0 59963 27900.00000 0 -11248912.669 22554742.129 -4031413.918 10 0 59963 28800.00000 0 -11218559.387 22914866.893 -815503.282 10 0 59963 29700.00000 0 -10995226.216 22912115.687 2416218.133 10 0 59963 30600.00000 0 -10631461.185 22524706.113 5601111.994 10 0 59963 31500.00000 0 -10183935.022 21743828.169 8677468.925 10 0 59963 32400.00000 0 -9710845.990 20574143.891 11585696.882 10 0 59963 33300.00000 0 -9269273.026 19033740.878 14269467.336 10 0 59963 34200.00000 0 -8912588.479 17153541.482 16676797.640 10 0 59963 35100.00000 0 -8688038.991 14976191.799 18761049.473 10 0 59963 36000.00000 0 -8634595.941 12554475.961 20481824.872 10 0 59963 36900.00000 0 -8781165.528 9949320.726 21805743.309 10 0 59963 37800.00000 0 -9145233.656 7227472.053 22707085.540 10 0 59963 38700.00000 0 -9732002.813 4458938.632 23168292.292 10 0 59963 39600.00000 0 -10534057.796 1714307.102 23180308.385 10 0 59963 40500.00000 0 -11531575.385 -937961.191 22742765.556 10 0 59963 41400.00000 0 -12693070.581 -3434141.104 21863999.998 10 0 59963 42300.00000 0 -13976649.732 -5717654.878 20560903.480 10 0 59963 43200.00000 0 -15331719.757 -7741184.344 18858609.850 10 0 59963 44100.00000 0 -16701083.391 -9468396.788 16790021.690 10 0 59963 45000.00000 0 -18023333.909 -10875212.757 14395184.979 10 0 59963 45900.00000 0 -19235449.695 -11950562.940 11720522.588 10 0 59963 46800.00000 0 -20275480.070 -12696602.382 8817940.387 10 0 59963 47700.00000 0 -21085209.234 -13128372.866 5743822.620 10 0 59963 48600.00000 0 -21612685.489 -13272927.676 2557935.706 10 0 59963 49500.00000 0 -21814508.023 -13167955.776 -677738.158 10 0 59963 50400.00000 0 -21657773.363 -12859963.844 -3900214.287 10 0 59963 51300.00000 0 -21121597.755 -12402093.728 -7046741.212 10 0 59963 52200.00000 0 -20198149.582 -11851668.630 -10056033.647 10 0 59963 53100.00000 0 -18893146.819 -11267573.100 -12869477.317 10 0 59963 54000.00000 0 -17225797.308 -10707579.122 -15432281.000 10 0 59963 54900.00000 0 -15228183.450 -10225732.842 -17694552.263 10 0 59963 55800.00000 0 -12944116.688 -9869913.782 -19612275.031 10 0 59963 56700.00000 0 -10427509.642 -9679670.801 -21148169.475 10 0 59963 57600.00000 0 -7740334.120 -9684426.998 -22272417.352 10 0 59963 58500.00000 0 -4950250.703 -9902129.722 -22963238.783 10 0 59963 59400.00000 0 -2128009.097 -10338402.747 -23207309.758 10 0 59963 60300.00000 0 655272.220 -10986236.106 -23000012.873 10 0 59963 61200.00000 0 3330833.724 -11826226.204 -22345517.204 10 0 59963 62100.00000 0 5834896.798 -12827355.524 -21256686.575 10 0 59963 63000.00000 0 8111071.557 -13948278.499 -19754818.772 10 0 59963 63900.00000 0 10112451.349 -15139058.836 -17869221.466 10 0 59963 64800.00000 0 11803308.239 -16343284.759 -15636633.702 10 0 59963 65700.00000 0 13160320.610 -17500472.837 -13100504.605 10 0 59963 66600.00000 0 14173283.594 -18548659.086 -10310143.743 10 0 59963 67500.00000 0 14845274.843 -19427068.388 -7319759.908 10 0 59963 68400.00000 0 15192270.822 -20078750.023 -4187407.087 10 0 59963 69300.00000 0 15242231.689 -20453068.754 -973858.301 10 0 59963 70200.00000 0 15033694.954 -20507947.006 2258570.902 10 0 59963 71100.00000 0 14613938.433 -20211764.240 5447226.569 10 0 59963 72000.00000 0 14036790.783 -19544834.017 8530324.880 10 0 59963 72900.00000 0 13360182.346 -18500396.893 11448142.078 10 0 59963 73800.00000 0 12643539.614 -17085087.488 14144163.272 10 0 59963 74700.00000 0 11945132.797 -15318855.901 16566168.439 10 0 59963 75600.00000 0 11319487.724 -13234346.149 18667235.439 10 0 59963 76500.00000 0 10814970.348 -10875756.679 20406641.492 10 0 59963 77400.00000 0 10471644.836 -8297229.275 21750646.417 10 0 59963 78300.00000 0 10319494.788 -5560831.973 22673143.306 10 0 59963 79200.00000 0 10377082.067 -2734218.122 23156164.552 10 0 59963 80100.00000 0 10650699.671 111942.815 23190233.691 10 0 59963 81000.00000 0 11134054.697 2906657.840 22774556.224 10 0 59963 81900.00000 0 11808495.609 5581316.252 21917045.269 10 0 59963 82800.00000 0 12643775.457 8072297.679 20634180.764 10 0 59963 83700.00000 0 13599320.414 10323375.049 18950703.893 10 0 59963 84600.00000 0 14625951.815 12287813.303 16899151.342 10 0 59963 85500.00000 0 15667990.644 13930076.707 14519237.099 99